Regional Weather Roundup
Issued by NWS

Home | Current Version | Previous Version | Graphics & Text | Print | Product List | Glossary On
Versions: 1 2 3 4 5 6 7 8 9 10 11 12 13 14 15 16 17 18 19 20 21 22 23 24 25 26 27 28 29 30 31 32 33 34 35 36 37 38 39 40 41 42 43 44 45 46 47 48 49 50
000
ASUS43 KLOT 221202
RWRIL

ILLINOIS REGIONAL WEATHER ROUNDUP
NATIONAL WEATHER SERVICE CHICAGO/ROMEOVILLE IL
700 AM CDT FRI MAY 22 2015

NOTE: "FAIR" INDICATES FEW OR NO CLOUDS BELOW 12,000 FEET WITH NO
SIGNIFICANT WEATHER AND/OR OBSTRUCTIONS TO VISIBILITY.

* THESE STATIONS ARE NOT UNDER NWS QUALITY CONTROL. THEY ALSO MAY NOT
  REPORT WEATHER SUCH AS PRECIPITATION OR FOG.

ILZ001-002-007-009-015-016-024-221300-
NORTHWEST ILLINOIS

CITY           SKY/WX    TMP DP  RH WIND       PRES   REMARKS
MOLINE         SUNNY     50  44  80 CALM      30.16R
6HR MIN TEMP:  44; 6HR MAX TEMP:  54;

STERLING*      SUNNY     54  45  71 CALM      30.16R
$$

ILZ003-004-008-010-011-017-018-221300-
NORTH CENTRAL ILLINOIS

CITY           SKY/WX    TMP DP  RH WIND       PRES   REMARKS
ROCKFORD       SUNNY     51  37  58 NE6       30.19R
6HR MIN TEMP:  46; 6HR MAX TEMP:  55;

$$

ILZ005-006-012>014-019>023-221300-
NORTHEAST ILLINOIS

CITY           SKY/WX    TMP DP  RH WIND       PRES   REMARKS
CHICAGO-OHARE  SUNNY     51  39  63 NE6       30.15R
6HR MIN TEMP:  47; 6HR MAX TEMP:  59;

CHICAGO-MIDWAY SUNNY     54  43  66 NE5       30.14R
6HR MIN TEMP:  50; 6HR MAX TEMP:  60;

AURORA         SUNNY     50  41  71 NE8       30.15R
6HR MIN TEMP:  43; 6HR MAX TEMP:  56;

WAUKEGAN       SUNNY     48  37  65 NE7       30.16R
6HR MIN TEMP:  39; 6HR MAX TEMP:  52;

DUPAGE AIRPORT SUNNY     50  42  74 N5        30.14R
6HR MIN TEMP:  43; 6HR MAX TEMP:  54;

WHEELING       SUNNY     50  39  66 N3        30.18R
6HR MIN TEMP:  45; 6HR MAX TEMP:  58;

NORTHERLY ISL    N/A     51  42  71 N7          N/A
$$

LMZ740>746-221300-
SOUTHERN LAKE MICHIGAN

STATION/POSITION SKY/WX   TEMP    WIND        PRES    VSBY  WAVE
                          AIR SEA DIR/SP/G                  HT/PER
                          (F)     (DEG/KT/KT) (MB)    (MI)  (FT/S)
SOUTHERN BUOY              40 38  340/  8/  8 1022.3R
HARRISON CRIB              48      10/ 11/ 12   N/A
BURNHAM HARBOR             48     360/  9/ 12   N/A
CALUMET HARBOR             49     330/  3/  6   N/A
BURNS HARBOR               52      50/  6/  7 1020.3R
MICHIGAN CITY              50      20/  9/ 10   N/A
MICHIGAN CITY 6N           49 51   30/  8/ 12   N/A           1
ST. JOSEPH                 53 53   70/  8/ 10   N/A           1/ 3
$$

ILZ025>027-034>036-040-047-049-050-058-095>099-221300-
WEST-CENTRAL ILLINOIS

CITY           SKY/WX    TMP DP  RH WIND       PRES   REMARKS
QUINCY         SUNNY     54  44  69 W6        30.19R
$$

ILZ028>032-037-038-041>044-048-051>054-059>061-221300-
CENTRAL ILLINOIS

CITY           SKY/WX    TMP DP  RH WIND       PRES   REMARKS
DECATUR        SUNNY     55  46  71 W7        30.18R
PEORIA         SUNNY     55  46  71 W3        30.16R
6HR MIN TEMP:  49; 6HR MAX TEMP:  58;

SPRINGFIELD    SUNNY     54  46  74 W7        30.18R
6HR MIN TEMP:  50; 6HR MAX TEMP:  56;

TAYLORVILLE    NOT AVBL
$$

ILZ033-039-045-046-055>057-062-063-221300-
EAST-CENTRAL ILLINOIS

CITY           SKY/WX    TMP DP  RH WIND       PRES   REMARKS
CHAMPAIGN      SUNNY     52  46  80 W9        30.16R
MATTOON        SUNNY     53  44  71 SW7       30.17R
$$

ILZ079-100>102-221300-
SOUTHWEST ILLINOIS

CITY           SKY/WX    TMP DP  RH WIND       PRES   REMARKS
ALTON          SUNNY     54  50  87 SW7       30.22R
BELLEVILLE     SUNNY     49  48  95 SW7       30.22R
CAHOKIA*       SUNNY     52  44  74 SW3       30.23R
$$

ILZ064>066-069>071-074>076-080>082-084>086-088>090-092>094-221300-
SOUTH-CENTRAL ILLINOIS

CITY           SKY/WX    TMP DP  RH WIND       PRES   REMARKS
CARBONDALE     SUNNY     48  45  89 SW5       30.27R
6HR MIN TEMP:  43; 6HR MAX TEMP:  48;

MT. VERNON     SUNNY     48  45  87 SW8       30.25R
$$

ILZ067-068-072-073-078-083-087-091-221300-
SOUTHEAST ILLINOIS

CITY           SKY/WX    TMP DP  RH WIND       PRES   REMARKS
LAWRENCEVILLE  SUNNY     52  45  77 SW12      30.23R
$$

ABBREVIATIONS USED IN REMARKS
   TC - TEMPERATURE IN CELSIUS
  WCI - WIND CHILL INDEX
   HX - HEAT INDEX
  VSB - VISIBILITY
$$




USA.gov is the U.S. government's official web portal to all federal, state and local government web resources and services.